Weather History for KPKB - October, 2013

Change the Weather History Date:

Saturday, October 12, 2013

  Actual Average Record
Temperature  
Mean Temperature 63 °F 56 °F  
Max Temperature 73 °F 68 °F 86 °F (1954)
Min Temperature 53 °F 45 °F 26 °F (1906)
Degree Days  
Heating Degree Days 2 9  
Month to date heating degree days 41 92  
Cooling Degree Days 0 1  
Month to date cooling degree days 31 12  
Year to date cooling degree days 955 948  
Growing Degree Days 12 (Base 50)    
Moisture  
Dew Point 55 °F    
Average Humidity 81    
Maximum Humidity 100    
Minimum Humidity 61    
Precipitation  
Precipitation 0.00 in 0.10 in 0.94 in (2011)
Month to date precipitation 0.49 1.10  
Year to date precipitation 34.41 32.97  
Sea Level Pressure  
Sea Level Pressure 30.12 in    
Wind  
Wind Speed 2 mph (SW)    
Max Wind Speed 9 mph    
Max Gust Speed 13 mph    
Visibility 6 miles    
Events Fog    
T = Trace of Precipitation, MM = Missing Value Source: NWS Daily Summary

Daily Weather History Graph

Daily Weather History Graph

Search for Another Location

Airport or City:

Trip Planner

Search our weather history database for the weather conditions in past years. The results will help you decide how hot, cold, wet, or windy it might be!

Date:

Astronomy

Oct. 12, 2013 Rise Set
Actual Time 7:32 AM EDT 6:50 PM EDT
Civil Twilight 7:05 AM EDT 7:17 PM EDT
Nautical Twilight 6:34 AM EDT 7:48 PM EDT
Astronomical Twilight 6:03 AM EDT 8:19 PM EDT
Moon 2:57 PM EDT (10/12) 12:36 AM EDT (10/12)
Length of Visible Light 12h 11m
Length of Day
11h 18m
First Quarter, 58% of the Moon is Illuminated
Oct 12
First Quarter
Oct 18
Full
Oct 26
Last Quarter
Nov 3
New
Nov 10
First Quarter

Hourly Weather History & Observations

Time (EDT) Temp. Dew Point Humidity Pressure Visibility Wind Dir Wind Speed Gust Speed Precip Events Conditions
12:08 AM 60.8 °F 55.4 °F 82% 30.09 in 10.0 mi Calm Calm - N/A   Overcast
12:53 AM 61.0 °F 55.9 °F 83% 30.07 in 10.0 mi Calm Calm - N/A   Overcast
1:53 AM 60.1 °F 55.9 °F 86% 30.08 in 10.0 mi Calm Calm - N/A   Overcast
2:53 AM 59.0 °F 55.9 °F 90% 30.08 in 9.0 mi NNE 3.5 mph - N/A   Overcast
3:53 AM 57.9 °F 55.0 °F 90% 30.07 in 10.0 mi Calm Calm - N/A   Mostly Cloudy
4:05 AM 57.2 °F 55.4 °F 94% 30.08 in 9.0 mi Calm Calm - N/A   Scattered Clouds
4:53 AM 55.9 °F 54.0 °F 93% 30.08 in 2.0 mi Calm Calm - N/A   Clear
5:14 AM 55.4 °F 53.6 °F 94% 30.09 in 0.8 mi Calm Calm - N/A   Clear
5:21 AM 55.4 °F 53.6 °F 94% 30.09 in 2.5 mi Calm Calm - N/A   Clear
5:28 AM 55.4 °F 53.6 °F 94% 30.09 in 4.0 mi Calm Calm - N/A   Clear
5:44 AM 55.4 °F 53.6 °F 94% 30.10 in 2.5 mi Calm Calm - N/A   Clear
5:53 AM 55.0 °F 54.0 °F 96% 30.09 in 2.0 mi Calm Calm - N/A   Partly Cloudy
6:07 AM 55.4 °F 53.6 °F 94% 30.11 in 1.5 mi Calm Calm - N/A   Clear
6:17 AM 53.6 °F 53.6 °F 100% 30.11 in 2.5 mi Calm Calm - N/A   Partly Cloudy
6:25 AM 53.6 °F 51.8 °F 94% 30.11 in 4.0 mi Calm Calm - N/A   Clear
6:35 AM 53.6 °F 51.8 °F 94% 30.11 in 4.0 mi Calm Calm - N/A   Partly Cloudy
6:53 AM 54.0 °F 52.0 °F 93% 30.10 in 3.0 mi Calm Calm - N/A   Scattered Clouds
6:57 AM 53.6 °F 51.8 °F 94% 30.11 in 2.5 mi Calm Calm - N/A   Mostly Cloudy
7:03 AM 53.6 °F 53.6 °F 100% 30.11 in 0.8 mi Calm Calm - N/A   Mostly Cloudy
7:29 AM 53.6 °F 51.8 °F 94% 30.12 in 0.2 mi Calm Calm - 0.01 in Fog Fog
7:53 AM 53.1 °F 53.1 °F 100% 30.12 in 0.2 mi Calm Calm - 0.01 in Fog Fog
8:51 AM 53.6 °F 53.6 °F 100% 30.14 in 0.2 mi Calm Calm - N/A Fog Fog
8:53 AM 54.0 °F 54.0 °F 100% 30.13 in 0.2 mi Calm Calm - N/A Fog Fog
9:05 AM 55.4 °F 55.4 °F 100% 30.14 in 0.8 mi Calm Calm - N/A   Overcast
9:09 AM 55.4 °F 55.4 °F 100% 30.14 in 0.5 mi Calm Calm - N/A Fog Fog
9:21 AM 55.4 °F 55.4 °F 100% 30.14 in 0.8 mi Calm Calm - N/A   Overcast
9:53 AM 57.0 °F 55.9 °F 96% 30.14 in 0.8 mi Calm Calm - N/A   Overcast
10:00 AM 57.2 °F 55.4 °F 94% 30.14 in 6.0 mi Calm Calm - N/A   Overcast
10:07 AM 57.2 °F 55.4 °F 94% 30.14 in 4.0 mi Calm Calm - N/A   Overcast
10:53 AM 60.1 °F 55.9 °F 86% 30.14 in 10.0 mi SSW 3.5 mph - N/A   Overcast
11:49 AM 62.6 °F 55.4 °F 77% 30.14 in 10.0 mi South 4.6 mph - N/A   Overcast
11:53 AM 62.1 °F 55.9 °F 80% 30.13 in 10.0 mi South 3.5 mph - N/A   Overcast
12:53 PM 64.0 °F 55.9 °F 75% 30.13 in 10.0 mi Calm Calm - N/A   Scattered Clouds
1:53 PM 70.0 °F 57.9 °F 65% 30.11 in 10.0 mi Calm Calm - N/A   Scattered Clouds
2:53 PM 70.0 °F 57.9 °F 65% 30.10 in 10.0 mi SW 5.8 mph - N/A   Scattered Clouds
3:53 PM 72.0 °F 57.9 °F 61% 30.10 in 10.0 mi West 6.9 mph - N/A   Mostly Cloudy
4:53 PM 72.0 °F 57.9 °F 61% 30.10 in 10.0 mi WSW 3.5 mph - N/A   Clear
5:53 PM 70.0 °F 57.9 °F 65% 30.12 in 10.0 mi WSW 4.6 mph - N/A   Clear
6:53 PM 66.0 °F 57.9 °F 75% 30.13 in 10.0 mi Calm Calm - N/A   Clear
7:53 PM 63.0 °F 57.9 °F 84% 30.13 in 10.0 mi Calm Calm - N/A   Clear
8:53 PM 62.1 °F 57.0 °F 84% 30.14 in 10.0 mi Calm Calm - N/A   Clear
9:53 PM 60.1 °F 55.9 °F 86% 30.14 in 10.0 mi SSW 4.6 mph - N/A   Clear
10:53 PM 59.0 °F 55.9 °F 90% 30.17 in 8.0 mi Calm Calm - N/A   Scattered Clouds
11:53 PM 57.0 °F 55.0 °F 93% 30.17 in 6.0 mi Calm Calm - N/A   Clear